Weather History for Chattanooga, TN

Change the Weather History Date:

Thursday, December 5, 2013

  Actual Average Record
Temperature  
Mean Temperature 69 °F 45 °F  
Max Temperature 75 °F 55 °F 77 °F (1998)
Min Temperature 62 °F 35 °F 18 °F (1974)
Degree Days  
Heating Degree Days 0 20  
Month to date heating degree days 52 98  
Since 1 July heating degree days 683 687  
Cooling Degree Days 4 0  
Month to date cooling degree days 4 0  
Year to date cooling degree days 1756 1741  
Growing Degree Days 18 (Base 50)    
Moisture  
Dew Point 64 °F    
Average Humidity 83    
Maximum Humidity 93    
Minimum Humidity 73    
Precipitation  
Precipitation T in 0.18 in 2.89 in (1910)
Month to date precipitation 0.09 0.89  
Year to date precipitation 60.88 48.47  
Snow  
Snow 0.00 in 0.00 in - ()
Month to date snowfall 0.0 0.0  
Since 1 July snowfall T T  
Snow Depth 0.00 in    
Sea Level Pressure  
Sea Level Pressure 29.96 in    
Wind  
Wind Speed 7 mph (South)    
Max Wind Speed 15 mph    
Max Gust Speed 21 mph    
Visibility 8 miles    
Events Rain    
T = Trace of Precipitation, MM = Missing Value Source: NWS Daily Summary

Daily Weather History Graph

Daily Weather History Graph

Search for Another Location

Airport:

Trip Planner

Search our weather history database for the weather conditions in past years. The results will help you decide how hot, cold, wet, or windy it might be!

Date:

Astronomy

Dec. 05, 2013 Rise Set
Actual Time 7:34 AM EST 5:28 PM EST
Civil Twilight 7:06 AM EST 5:56 PM EST
Nautical Twilight 6:34 AM EST 6:28 PM EST
Astronomical Twilight 6:04 AM EST 6:58 PM EST
Moon 9:56 AM EST (12/5) 8:45 PM EST (12/5)
Length of Visible Light 10h 50m
Length of Day
9h 54m
Waxing Crescent, 10% of the Moon is Illuminated
Dec 5
Waxing Crescent
Dec 9
First Quarter
Dec 17
Full
Dec 25
Last Quarter
Jan 1
New

Hourly Weather History & Observations

Time (EST) Temp. Dew Point Humidity Pressure Visibility Wind Dir Wind Speed Gust Speed Precip Events Conditions
12:53 AM 64.9 °F 61.0 °F 87% 29.97 in 8.0 mi South 5.8 mph - N/A   Overcast
1:38 AM 66.2 °F 62.6 °F 88% 29.99 in 9.0 mi SSE 5.8 mph - N/A   Overcast
1:53 AM 66.0 °F 62.1 °F 87% 29.97 in 10.0 mi South 3.5 mph - N/A   Overcast
2:33 AM 66.2 °F 62.6 °F 88% 29.98 in 10.0 mi South 6.9 mph - N/A   Mostly Cloudy
2:53 AM 66.0 °F 62.1 °F 87% 29.96 in 10.0 mi SSE 6.9 mph - N/A   Scattered Clouds
3:22 AM 66.2 °F 62.6 °F 88% 29.97 in 10.0 mi South 6.9 mph - N/A   Mostly Cloudy
3:30 AM 64.4 °F 62.6 °F 94% 29.97 in 10.0 mi South 5.8 mph - N/A   Scattered Clouds
3:53 AM 66.0 °F 62.1 °F 87% 29.95 in 10.0 mi South 5.8 mph - N/A   Clear
4:29 AM 62.6 °F 60.8 °F 94% 29.98 in 7.0 mi Calm Calm - N/A   Mostly Cloudy
4:53 AM 63.0 °F 61.0 °F 93% 29.97 in 5.0 mi Calm Calm - N/A   Overcast
5:22 AM 62.6 °F 60.8 °F 94% 29.99 in 7.0 mi Calm Calm - N/A   Overcast
5:53 AM 64.9 °F 62.1 °F 90% 29.98 in 7.0 mi Calm Calm - N/A   Mostly Cloudy
6:53 AM 63.0 °F 61.0 °F 93% 30.00 in 7.0 mi South 4.6 mph - N/A   Mostly Cloudy
7:53 AM 66.0 °F 63.0 °F 90% 29.99 in 7.0 mi South 6.9 mph - N/A   Overcast
8:53 AM 66.0 °F 63.0 °F 90% 30.02 in 5.0 mi SSW 4.6 mph - N/A   Mostly Cloudy
9:53 AM 69.1 °F 64.0 °F 84% 30.02 in 5.0 mi South 8.1 mph - N/A   Mostly Cloudy
10:53 AM 71.1 °F 64.9 °F 81% 30.02 in 7.0 mi South 9.2 mph - N/A   Mostly Cloudy
11:53 AM 71.1 °F 64.0 °F 78% 30.00 in 7.0 mi South 10.4 mph - 0.00 in   Mostly Cloudy
12:53 PM 72.0 °F 64.9 °F 78% 29.97 in 7.0 mi SSE 10.4 mph 16.1 mph N/A   Overcast
1:53 PM 73.9 °F 64.9 °F 73% 29.93 in 10.0 mi SSE 9.2 mph 18.4 mph N/A   Mostly Cloudy
2:53 PM 73.9 °F 64.9 °F 73% 29.91 in 10.0 mi SSE 11.5 mph - N/A   Mostly Cloudy
3:53 PM 73.0 °F 64.0 °F 73% 29.91 in 10.0 mi South 6.9 mph - N/A   Overcast
4:53 PM 72.0 °F 64.9 °F 78% 29.94 in 10.0 mi South 8.1 mph - 0.00 in Rain Light Rain
5:53 PM 69.1 °F 66.9 °F 93% 29.93 in 9.0 mi SSE 4.6 mph - 0.00 in   Mostly Cloudy
6:28 PM 69.8 °F 66.2 °F 88% 29.93 in 6.0 mi South 4.6 mph - N/A   Overcast
6:53 PM 69.1 °F 66.0 °F 90% 29.93 in 7.0 mi South 6.9 mph - N/A   Overcast
7:16 PM 68.0 °F 64.4 °F 88% 29.94 in 9.0 mi South 10.4 mph 18.4 mph N/A   Mostly Cloudy
7:45 PM 69.8 °F 64.4 °F 83% 29.94 in 8.0 mi South 5.8 mph - N/A   Mostly Cloudy
7:53 PM 69.1 °F 64.9 °F 87% 29.93 in 8.0 mi SSW 8.1 mph - N/A   Mostly Cloudy
8:35 PM 68.0 °F 64.4 °F 88% 29.96 in 10.0 mi South 5.8 mph - N/A   Overcast
8:53 PM 69.1 °F 64.9 °F 87% 29.94 in 10.0 mi South 4.6 mph - N/A   Overcast
9:40 PM 69.8 °F 64.4 °F 83% 29.94 in 10.0 mi SSE 8.1 mph - N/A   Mostly Cloudy
9:53 PM 69.1 °F 64.9 °F 87% 29.93 in 9.0 mi South 8.1 mph - N/A   Mostly Cloudy
10:53 PM 69.1 °F 64.9 °F 87% 29.94 in 10.0 mi South 5.8 mph - N/A   Overcast
11:11 PM 69.8 °F 64.4 °F 83% 29.96 in 10.0 mi South 4.6 mph - N/A   Overcast
11:53 PM 70.0 °F 66.0 °F 87% 29.94 in 10.0 mi South 5.8 mph - N/A   Overcast